Back to catalog

STARLINK-3740

AliveCommunicationsVLEO
NORAD 52265·PAYLOAD·🇺🇸 United States

Launched Apr 21, 2022 from Cape Canaveral Space Force Station

Loading…

Next Passes (next 24 hours)

TLE

FreshSource: CelesTrak SupGP

Epoch: Sep 14, 2026, 21:29 UTC

1 52265C 22041E   26257.89562500 -.00028310  00000+0 -83666-3 0  2570
2 52265  53.1588 326.0301 0001134  68.3106 219.1901 15.34396219    17

Track STARLINK-3740 in real time with AllMySat

Download on the App Store